Location: Sungai Buloh
(3.1000°N, 113.0000°E)
Time: 16:08:03
(UTC+00:00)

Palapa B4 Rocket - Pass Details

Date: 12 January 2026
Orbit: 502 x 2663 km, 19.7° (Epoch: 11 February)

Event Time Altitude Azimuth Distance (km) Brightness Sun altitude
Exits shadow 21:30:56 31° 314° (NW) 941 3.5 -16.4°
Maximum altitude 21:31:49 35° 344° (NNW) 881 3.5 -16.2°
Drops below altitude 10° 21:35:58 10° 51° (NE) 2,053 6.1 -15.2°
Sets 21:38:55 0° 60° (ENE) 3,223 7.3 -14.5°
